Total_Precipitation_Accumulation
0.02 0.06 0.12 0.17 0.16 0.11 0.06 0.05 0.06 0.07 0.13 0.20 0.35 0.46 0.47 0.46 0.47 0.41 0.30 0.27 0.24 0.25 0.25 0.26 0.30 0.34 0.42 0.55 0.57 0.62 0.75 0.83 0.89 0.90 0.96 1.08 1.13 1.07 1.11 1.11 1.12 1.26 1.32 1.30
0.03 0.05 0.08 0.11 0.14 0.09 0.06 0.06 0.05 0.07 0.14 0.25 0.42 0.47 0.49 0.44 0.41 0.38 0.37 0.31 0.28 0.29 0.32 0.29 0.31 0.39 0.47 0.56 0.63 0.77 1.04 1.18 1.19 1.22 1.26 1.27 1.26 1.20 1.24 1.31 1.45 1.50 1.47 1.43
0.05 0.07 0.08 0.13 0.12 0.10 0.09 0.07 0.08 0.12 0.20 0.28 0.39 0.53 0.60 0.52 0.39 0.37 0.36 0.36 0.36 0.38 0.43 0.41 0.42 0.45 0.48 0.54 0.64 0.80 1.00 1.17 1.27 1.30 1.33 1.39 1.38 1.40 1.41 1.46 1.51 1.55 1.60 1.60
0.10 0.10 0.17 0.15 0.14 0.14 0.13 0.13 0.15 0.24 0.33 0.36 0.38 0.44 0.49 0.41 0.40 0.43 0.42 0.45 0.49 0.50 0.54 0.54 0.55 0.55 0.62 0.74 0.84 0.95 1.06 1.18 1.33 1.39 1.45 1.47 1.42 1.36 1.35 1.37 1.37 1.34 1.32 1.31
0.21 0.20 0.18 0.16 0.19 0.21 0.20 0.25 0.28 0.38 0.49 0.52 0.50 0.50 0.58 0.51 0.48 0.49 0.52 0.53 0.57 0.61 0.64 0.70 0.77 0.77 0.79 0.89 1.02 1.14 1.21 1.34 1.45 1.52 1.62 1.56 1.44 1.37 1.28 1.26 1.18 1.11 1.10 1.12
0.32 0.34 0.33 0.26 0.30 0.29 0.31 0.50 0.47 0.53 0.63 0.70 0.71 0.86 0.91 0.68 0.63 0.57 0.54 0.57 0.60 0.70 0.76 0.81 0.92 0.96 0.95 0.99 1.05 1.13 1.19 1.28 1.40 1.48 1.60 1.63 1.52 1.47 1.41 1.38 1.29 1.23 1.18 1.16
0.41 0.43 0.38 0.35 0.34 0.35 0.62 0.83 0.75 0.72 0.71 0.80 0.90 0.84 0.78 0.65 0.63 0.60 0.53 0.55 0.57 0.64 0.76 0.81 0.89 0.98 1.08 1.09 1.02 1.02 1.01 1.01 1.14 1.28 1.42 1.49 1.49 1.46 1.51 1.49 1.41 1.26 1.13 1.07
0.53 0.66 0.73 0.53 0.43 0.61 0.85 0.83 0.91 0.83 0.80 0.84 0.88 0.89 0.82 0.72 0.66 0.59 0.51 0.53 0.57 0.62 0.68 0.77 0.87 1.01 1.13 1.11 1.06 1.04 1.05 1.10 1.16 1.22 1.23 1.22 1.26 1.29 1.35 1.40 1.37 1.27 1.12 0.98
0.78 0.90 0.84 0.61 0.61 0.68 0.70 0.84 0.87 0.82 0.82 0.83 0.82 0.80 0.73 0.64 0.60 0.62 0.57 0.54 0.52 0.56 0.64 0.75 0.90 1.04 1.14 1.12 1.17 1.17 1.15 1.19 1.22 1.23 1.24 1.25 1.23 1.23 1.22 1.18 1.11 1.02 0.92 0.91
0.98 1.11 0.94 0.77 0.69 0.69 0.72 0.77 0.79 0.77 0.82 0.83 0.77 0.70 0.67 0.62 0.57 0.59 0.59 0.54 0.52 0.51 0.57 0.66 0.73 0.82 0.94 0.98 1.07 1.17 1.15 1.07 0.98 0.96 0.97 1.02 1.08 1.10 1.13 1.09 1.04 0.97 0.90 0.92
1.20 1.36 1.25 1.07 0.86 0.77 0.83 0.85 0.89 0.89 0.84 0.80 0.80 0.81 0.84 0.79 0.67 0.57 0.56 0.59 0.58 0.57 0.59 0.62 0.66 0.70 0.77 0.85 0.97 1.14 1.18 1.10 1.04 1.00 0.97 0.97 1.01 1.06 1.04 1.03 1.00 0.93 0.89 0.96
1.36 1.35 1.36 1.28 1.00 0.91 0.98 1.04 1.04 0.95 0.90 0.86 0.86 0.86 0.79 0.73 0.66 0.60 0.56 0.60 0.65 0.67 0.67 0.64 0.64 0.70 0.76 0.84 0.97 1.12 1.12 1.02 1.01 1.03 1.02 1.01 0.97 1.01 1.06 0.95 0.95 0.90 0.91 0.94
1.02 1.17 1.24 1.18 1.08 1.02 1.07 1.13 1.15 1.05 0.91 0.84 0.80 0.76 0.69 0.67 0.65 0.60 0.57 0.58 0.66 0.71 0.66 0.60 0.60 0.63 0.70 0.83 0.99 1.09 1.10 1.05 1.01 1.01 1.06 1.05 1.01 0.99 1.04 0.98 0.83 0.76 0.75 0.72
1.04 1.14 1.28 1.25 1.20 1.14 1.19 1.25 1.22 1.09 0.97 0.87 0.78 0.72 0.69 0.68 0.67 0.67 0.67 0.72 0.71 0.64 0.56 0.52 0.53 0.55 0.58 0.69 0.87 1.03 1.06 1.09 1.06 1.02 1.00 0.98 0.96 0.95 0.94 0.95 0.88 0.75 0.64 0.56
1.00 0.97 1.12 1.15 1.16 1.17 1.23 1.16 1.10 1.07 0.94 0.83 0.73 0.66 0.62 0.62 0.65 0.68 0.74 0.80 0.70 0.58 0.52 0.47 0.45 0.43 0.45 0.53 0.64 0.75 0.79 0.80 0.79 0.80 0.82 0.82 0.79 0.75 0.72 0.71 0.73 0.76 0.66 0.51
0.87 0.90 0.89 1.01 1.07 1.04 1.08 1.07 0.99 0.96 0.90 0.83 0.75 0.69 0.64 0.60 0.61 0.62 0.67 0.68 0.64 0.57 0.51 0.46 0.45 0.43 0.41 0.44 0.49 0.51 0.52 0.59 0.54 0.50 0.52 0.57 0.58 0.58 0.56 0.59 0.65 0.75 0.70 0.53
0.87 0.95 0.92 0.93 0.95 0.94 0.87 0.87 0.88 0.87 0.84 0.82 0.76 0.65 0.56 0.54 0.62 0.69 0.67 0.58 0.50 0.45 0.43 0.40 0.40 0.40 0.39 0.41 0.41 0.40 0.36 0.35 0.34 0.28 0.33 0.44 0.49 0.49 0.48 0.55 0.63 0.71 0.66 0.49
0.80 0.85 0.80 0.75 0.71 0.75 0.74 0.74 0.78 0.77 0.78 0.76 0.68 0.59 0.53 0.52 0.60 0.69 0.61 0.50 0.44 0.39 0.35 0.31 0.29 0.29 0.31 0.32 0.30 0.29 0.28 0.27 0.26 0.24 0.31 0.37 0.37 0.43 0.53 0.61 0.66 0.71 0.65 0.53
0.73 0.66 0.61 0.57 0.52 0.55 0.59 0.59 0.66 0.67 0.65 0.62 0.57 0.55 0.53 0.51 0.51 0.54 0.46 0.43 0.41 0.37 0.29 0.23 0.25 0.24 0.25 0.21 0.22 0.25 0.28 0.27 0.25 0.27 0.33 0.34 0.36 0.44 0.57 0.63 0.65 0.68 0.66 0.65
0.62 0.54 0.48 0.45 0.41 0.41 0.45 0.49 0.46 0.45 0.45 0.44 0.49 0.48 0.43 0.42 0.41 0.44 0.40 0.38 0.36 0.29 0.23 0.18 0.17 0.20 0.22 0.19 0.18 0.19 0.23 0.25 0.25 0.24 0.26 0.30 0.36 0.40 0.46 0.52 0.54 0.57 0.60 0.62
0.51 0.44 0.42 0.42 0.41 0.40 0.37 0.33 0.33 0.34 0.35 0.33 0.34 0.38 0.38 0.37 0.33 0.36 0.45 0.44 0.37 0.27 0.23 0.24 0.19 0.17 0.17 0.19 0.20 0.20 0.24 0.26 0.26 0.26 0.25 0.28 0.33 0.39 0.44 0.49 0.53 0.53 0.53 0.57
0.50 0.44 0.41 0.40 0.42 0.42 0.37 0.32 0.29 0.28 0.29 0.33 0.32 0.31 0.32 0.34 0.34 0.36 0.43 0.47 0.41 0.38 0.28 0.22 0.18 0.17 0.17 0.16 0.17 0.22 0.24 0.28 0.32 0.35 0.34 0.32 0.35 0.42 0.48 0.49 0.51 0.50 0.54 0.56
0.51 0.48 0.46 0.45 0.46 0.45 0.38 0.34 0.31 0.30 0.30 0.32 0.34 0.37 0.36 0.36 0.38 0.42 0.42 0.38 0.38 0.43 0.35 0.28 0.24 0.21 0.18 0.16 0.21 0.27 0.27 0.27 0.31 0.35 0.37 0.36 0.35 0.38 0.42 0.43 0.49 0.51 0.53 0.57
0.55 0.52 0.48 0.45 0.44 0.48 0.46 0.41 0.36 0.35 0.35 0.35 0.36 0.39 0.43 0.44 0.43 0.40 0.42 0.41 0.40 0.38 0.33 0.34 0.30 0.26 0.24 0.22 0.28 0.31 0.32 0.33 0.34 0.32 0.31 0.30 0.32 0.35 0.44 0.47 0.47 0.46 0.47 0.51
0.65 0.58 0.48 0.44 0.45 0.47 0.48 0.47 0.44 0.40 0.39 0.39 0.36 0.35 0.37 0.45 0.52 0.51 0.47 0.41 0.38 0.34 0.33 0.34 0.31 0.31 0.29 0.31 0.32 0.31 0.32 0.36 0.39 0.38 0.35 0.36 0.40 0.44 0.47 0.44 0.40 0.38 0.39 0.44
0.75 0.67 0.57 0.49 0.45 0.42 0.44 0.47 0.50 0.49 0.44 0.42 0.41 0.39 0.39 0.41 0.47 0.53 0.53 0.48 0.42 0.39 0.37 0.35 0.31 0.29 0.28 0.31 0.36 0.38 0.37 0.39 0.41 0.43 0.43 0.44 0.50 0.52 0.42 0.33 0.30 0.32 0.34 0.37
0.71 0.65 0.61 0.54 0.48 0.42 0.40 0.43 0.48 0.52 0.51 0.50 0.49 0.49 0.52 0.55 0.57 0.56 0.54 0.49 0.43 0.41 0.40 0.37 0.32 0.29 0.26 0.27 0.29 0.29 0.31 0.35 0.41 0.48 0.51 0.49 0.47 0.44 0.36 0.29 0.27 0.28 0.33 0.35